Location: Unspecified
(22.6800°N, 112.2000°E)
Time: 19:11:04
(UTC+08:00)

deb Explorer IX - All Passes

Search period start: 03 August 2021 00:00
Search period end: 13 August 2021 00:00
Orbit: 544 x 1093 km, 38.8° (Epoch: 02 August)

Date Brightness Start Highest point End Pass type
(mag) Time Alt. Az. Time Alt. Az. Time Alt. Az.
03 Aug - 10:46:04 10° SW 10:50:10 71° SE 10:54:42 10° ENE daylight
03 Aug - 12:33:40 10° WNW 12:37:16 24° NNW 12:41:16 10° NNE daylight
03 Aug - 14:22:55 10° NNW 14:25:31 14° N 14:28:18 10° NNE daylight
03 Aug - 16:09:50 10° NNW 16:14:01 20° NNE 16:18:38 10° ENE daylight
03 Aug - 17:55:50 10° NW 18:01:53 55° NNE 18:08:42 10° ESE daylight
03 Aug - 19:42:56 10° WNW 19:49:07 41° SW 19:55:47 10° SSE visible
04 Aug - 10:22:06 10° SW 10:26:10 71° SE 10:30:33 10° ENE daylight
04 Aug - 12:09:45 10° WNW 12:13:13 23° NNW 12:17:01 10° NNE daylight
04 Aug - 13:59:06 10° NNW 14:01:24 13° N 14:03:52 10° NNE daylight
04 Aug - 15:45:54 10° NNW 15:49:52 20° NNE 15:54:15 10° ENE daylight
04 Aug - 17:31:47 10° NW 17:37:39 54° NNE 17:44:21 10° ESE daylight
04 Aug - 19:18:49 10° WNW 19:24:51 40° SW 19:31:27 10° SSE daylight
05 Aug - 09:58:06 10° SW 10:02:09 71° SE 10:06:26 10° ENE daylight
05 Aug - 11:45:48 10° WNW 11:49:10 22° NNW 11:52:48 10° NNE daylight
05 Aug - 13:35:18 10° NNW 13:37:19 12° N 13:39:25 10° NNE daylight
05 Aug - 15:21:58 10° NNW 15:25:43 19° NNE 15:29:50 10° ENE daylight
05 Aug - 17:07:44 10° NW 17:13:26 53° NNE 17:19:59 10° ESE daylight
05 Aug - 18:54:43 10° WNW 19:00:36 40° SW 19:07:06 10° SSE daylight
06 Aug - 09:34:05 10° SW 09:38:08 70° SE 09:42:19 10° ENE daylight
06 Aug - 11:21:51 10° WNW 11:25:07 21° NNW 11:28:35 10° NNE daylight
06 Aug - 13:11:33 10° NNW 13:13:13 12° N 13:14:57 10° NNE daylight
06 Aug - 14:58:03 10° NNW 15:01:34 18° NNE 15:05:26 10° ENE daylight
06 Aug - 16:43:43 10° NW 16:49:14 52° NNE 16:55:37 10° ESE daylight
06 Aug - 18:30:38 10° WNW 18:36:21 39° SW 18:42:45 10° SSE daylight
07 Aug - 09:10:03 10° SW 09:14:06 70° SE 09:18:14 10° ENE daylight
07 Aug - 10:57:53 10° WNW 11:01:03 21° NNW 11:04:24 10° NNE daylight
07 Aug - 12:47:50 10° NNW 12:49:07 11° N 12:50:27 10° NNE daylight
07 Aug - 14:34:08 10° NNW 14:37:26 17° NNE 14:41:02 10° ENE daylight
07 Aug - 16:19:42 10° NW 16:25:02 51° NNE 16:31:15 10° ESE daylight
07 Aug - 18:06:33 10° WNW 18:12:07 39° SW 18:18:23 10° SSE daylight
08 Aug - 08:45:59 10° SW 08:50:05 70° SE 08:54:09 10° ENE daylight
08 Aug - 10:33:53 10° WNW 10:37:00 20° NNW 10:40:14 10° NNE daylight
08 Aug - 12:24:12 10° NNW 12:25:01 10° N 12:25:50 10° N daylight
08 Aug - 14:10:13 10° NNW 14:13:18 16° NNE 14:16:38 10° NE daylight
08 Aug - 15:55:42 10° NW 16:00:50 50° NNE 16:06:52 10° ESE daylight
08 Aug - 17:42:30 10° WNW 17:47:52 38° SW 17:54:00 10° SSE daylight
09 Aug - 08:21:53 10° SW 08:26:02 70° SE 08:30:05 10° ENE daylight
09 Aug - 10:09:52 10° WNW 10:12:56 20° NNW 10:16:05 10° NNE daylight
09 Aug - 13:46:19 10° NNW 13:49:10 15° NNE 13:52:14 10° NE daylight
09 Aug - 15:31:41 10° NW 15:36:40 49° NNE 15:42:29 10° ESE daylight
09 Aug - 17:18:27 10° WNW 17:23:39 37° SW 17:29:36 10° SSE daylight
10 Aug - 07:57:45 10° SW 08:02:00 70° SE 08:06:02 10° ENE daylight
10 Aug - 09:45:49 10° WNW 09:48:52 20° NNW 09:51:58 10° NNE daylight
10 Aug - 13:22:24 10° NNW 13:25:02 15° NNE 13:27:50 10° NE daylight
10 Aug - 15:07:41 10° NW 15:12:30 48° NNE 15:18:07 10° ESE daylight
10 Aug - 16:54:24 10° WNW 16:59:26 37° SW 17:05:13 10° SSE daylight
11 Aug - 07:33:36 10° SW 07:37:56 70° SE 07:42:00 10° ENE daylight
11 Aug - 09:21:44 10° WNW 09:24:47 20° NNW 09:27:51 10° NNE daylight
11 Aug - 12:58:31 10° NNW 13:00:54 14° NNE 13:03:27 10° NE daylight
11 Aug - 14:43:41 10° NW 14:48:20 47° NNE 14:53:45 10° ESE daylight
11 Aug - 16:30:23 10° WNW 16:35:14 36° SW 16:40:49 10° SSE daylight
12 Aug - 07:09:24 10° SW 07:13:52 71° SE 07:17:58 10° ENE daylight
12 Aug - 08:57:36 10° WNW 09:00:43 20° NNW 09:03:46 10° NNE daylight
12 Aug - 12:34:36 10° NNW 12:36:47 13° NNE 12:39:05 10° NE daylight
12 Aug - 14:19:40 10° NW 14:24:10 46° NNE 14:29:24 10° ESE daylight
12 Aug - 16:06:21 10° WNW 16:11:01 35° SW 16:16:25 10° SSE daylight
